Mayer, AZ

12:25 PM MST on September 03, 2015 (GMT -0700)
Spring Valley | | Change Station
CLOSE
Current Station
Personal Weather Station
Location: Mayer, AZ
Elevation: 3917 ft
Nearby Weather Stations

Elev 3917 ft 34.34 °N, 112.16 °W | Updated 23 minutes ago

Partly Cloudy
Partly Cloudy
89.0 °F
Feels Like 86 °F
N
3.0
Wind Variable Wind from ESE
Gusts 3.0 mph

Today
High -- | Low -- °F
--% Chance of Precip.
Yesterday
High -- | Low -- °F
Precip. -- in
6:03 AM 6:52 PM
Waning Gibbous, 67% visible
Pressure 29.86 in
Visibility 10.0 miles
Clouds Scattered Clouds 7000 ft
Heat Index 86 °F
Dew Point 48 °F
Humidity 24%
Rainfall 0.00 in
Snow Depth Not available.
UV 9 out of 12
Pollen 5.60 out of 12
Air Quality Not available.
Flu Activity Not available.
METAR KPRC 031853Z 20013G19KT 170V230 10SM SCT070 27/04 A3011 RMK AO2 SLP112 T02720039
Pressure 29.86 in
Visibility 10.0 miles
Clouds Scattered Clouds 7000 ft
Heat Index 86 °F
Dew Point 48 °F
Humidity 24%
Rainfall 0.00 in
Snow Depth Not available.
UV 9 out of 12
Pollen 5.60 out of 12
Air Quality Not available.
Flu Activity Not available.
METAR KPRC 031853Z 20013G19KT 170V230 10SM SCT070 27/04 A3011 RMK AO2 SLP112 T02720039

10-Day Weather Forecast

×

Almanac

Astronomy

Sep. 03, 2015 Rise Set
Actual Time
Civil Twilight
Nautical Twilight
Astronomical Twilight
Moon
Length of Visible Light
Length of Day
Tomorrow will be .
, % of the Moon is Illuminated

Today's Extremes

State Highs State Lows

Community

WunderPhotos

Upload Photos

1,852,014 photos uploaded!

WunderBlogs® & News

Nearby

Air Quality

  Air Quality AQ Index Pollutant
Not available.

Snow Depth

Station Depth Elevation

Earthquake Activity

City Distance Mag. Time & Date
Minimum magnitude displayed is 2.5.

Coastal Water Temperatures

Place Temperature

Stations

Nearby Weather Stations

Station Location Temp. Windchill Dew Point Humidity Wind Precip. Elev Updated Type